Wind_Speed
8 5 4 3 3 2 4 4 3 1 0 1 2 2 3 3 3 2 2 3 4 5 5 4 4 5 6 7 7 8 7 6 5 3 2 2 3 3 4 3 2 3 2 1 2 3 3 6 6 3 3 4 5 7 9 10 10 10 11 11 11 9 7 7 7 7 8 12 15 15 15 15 15 15 14 14 13 14 13 13 15 16 17 17 18
10 7 5 3 3 3 2 3 2 1 0 1 2 2 3 3 3 3 2 3 4 5 5 4 5 5 5 7 7 8 8 7 5 3 2 2 2 2 2 1 0 1 2 2 3 4 5 6 5 2 2 4 5 7 8 9 9 10 11 12 11 11 9 8 8 7 8 11 14 16 16 16 15 16 15 14 14 14 14 15 16 17 17 17 18
12 9 6 3 2 3 2 0 1 0 1 1 1 2 2 2 3 3 3 3 3 4 4 4 5 4 5 6 7 7 7 7 6 4 2 2 2 3 3 2 1 1 1 3 3 5 6 6 4 3 4 5 6 7 8 9 10 11 12 12 12 11 11 10 9 8 9 11 13 15 17 16 15 16 15 15 15 15 15 15 16 17 18 18 18
12 10 7 4 3 3 3 2 1 2 2 1 1 2 2 3 3 3 2 3 3 2 3 4 4 4 5 5 6 7 7 7 6 4 3 3 4 4 4 4 4 4 2 2 3 4 4 3 2 4 5 6 8 8 8 9 10 11 12 13 13 12 12 11 10 9 9 11 12 14 17 17 16 16 16 16 16 16 16 16 17 17 18 18 18
13 11 9 6 5 4 3 3 2 3 3 2 1 2 3 4 3 3 2 2 3 3 3 3 4 5 5 5 5 6 6 6 6 4 4 4 4 4 5 5 6 5 4 2 2 3 2 2 0 3 4 5 8 8 6 7 8 9 12 12 12 12 12 12 12 10 10 11 12 13 16 18 17 17 16 16 17 17 17 17 18 18 18 19 19
13 12 11 9 7 6 5 4 3 3 3 2 2 3 4 5 4 3 2 2 3 4 4 4 4 5 5 5 4 5 5 5 5 4 4 4 4 4 5 6 6 6 5 4 3 3 4 4 2 0 2 3 6 6 5 5 7 9 11 11 12 12 12 12 13 12 11 12 12 12 15 17 18 18 17 17 18 18 18 19 19 19 19 19 19
14 13 13 12 10 8 6 5 4 3 3 3 3 5 6 6 6 5 4 2 2 3 4 5 5 5 5 5 5 5 5 4 5 5 4 4 4 4 5 6 6 6 5 4 4 4 3 3 2 2 2 1 3 3 4 5 7 9 9 10 12 13 14 14 14 13 12 13 13 13 14 16 17 19 19 18 18 18 19 19 20 20 19 20 20
17 16 15 13 12 9 7 6 4 3 4 5 6 7 7 7 6 6 5 4 3 3 3 5 6 6 6 5 6 6 6 5 5 5 5 5 5 6 6 6 6 6 6 5 5 4 3 2 2 2 2 0 2 3 4 5 6 7 8 9 12 14 15 15 14 14 14 14 14 14 15 15 16 18 20 20 19 18 19 20 21 21 21 21 20
18 18 17 15 14 12 9 7 6 5 5 6 7 7 7 6 6 5 5 4 3 2 2 4 5 5 6 6 6 7 7 6 6 6 6 6 6 7 7 7 7 7 6 6 6 5 4 3 2 2 2 1 2 2 3 3 4 6 7 9 12 14 15 15 15 16 15 15 15 15 16 17 17 18 19 20 21 19 19 20 21 22 22 22 21
19 19 18 17 16 14 12 10 8 7 7 6 7 6 6 6 5 4 4 4 3 3 3 3 4 4 5 7 7 7 7 7 6 6 6 6 6 7 8 8 8 7 7 7 7 5 5 4 4 3 2 2 2 3 3 3 4 5 6 8 10 12 13 15 16 17 16 16 16 16 17 18 18 18 18 20 21 21 20 20 21 22 23 23 22
20 19 19 19 18 16 14 12 11 9 8 7 7 6 5 5 4 4 5 4 4 3 3 3 3 4 5 6 7 7 8 8 6 6 6 6 6 7 8 8 8 8 7 6 6 5 4 4 4 3 2 2 1 2 3 4 5 6 7 8 9 10 12 15 16 17 18 18 17 17 18 19 19 18 19 21 22 23 23 21 21 22 23 24 24
20 19 19 19 19 18 16 14 13 11 10 9 7 6 5 4 4 4 4 4 4 4 3 4 4 3 4 5 6 6 7 8 6 5 5 6 6 7 7 8 8 7 7 5 5 5 4 3 3 2 1 1 1 1 2 3 5 6 7 9 9 8 10 13 15 18 19 19 19 18 19 19 20 19 19 20 22 23 24 23 22 22 22 24 25
20 20 20 19 19 19 17 16 15 14 12 11 9 8 7 6 6 6 6 6 6 4 3 3 3 3 2 3 4 5 5 6 6 6 6 7 7 8 8 8 7 7 6 5 4 4 3 4 4 3 3 2 2 2 3 3 4 5 7 8 8 8 9 10 14 17 19 20 20 20 20 19 20 20 18 19 20 22 25 25 24 23 23 23 24
20 20 20 20 20 19 18 17 16 15 14 13 12 10 9 9 9 9 8 8 8 6 4 3 2 1 1 2 3 4 4 4 5 5 6 7 8 8 8 7 7 7 6 6 5 4 4 4 5 5 5 5 4 4 4 4 4 5 5 7 8 9 10 10 12 14 16 20 21 20 21 20 21 21 19 18 18 20 24 26 26 25 24 23 23
19 19 19 20 20 19 19 18 17 16 15 15 14 13 11 11 10 9 9 9 9 8 7 5 4 3 2 2 3 4 4 5 5 5 4 5 5 5 5 6 6 6 6 6 6 5 5 5 5 6 6 6 6 6 6 5 5 5 5 5 7 9 10 10 11 12 14 17 21 23 22 22 23 22 20 19 18 19 21 24 27 28 26 24 23
19 19 19 20 20 19 19 19 18 17 16 15 15 14 13 12 12 11 11 10 9 8 7 7 5 4 3 3 3 3 4 5 6 6 5 5 5 5 6 6 6 6 6 6 6 6 6 6 6 6 7 8 8 8 7 7 7 6 6 6 6 8 10 10 11 12 12 13 17 23 26 24 23 24 22 21 20 19 19 22 26 28 28 27 25
19 19 19 19 19 19 19 19 18 17 16 16 15 14 13 13 13 12 12 11 10 9 8 7 6 6 5 5 5 5 4 4 5 5 5 5 6 6 7 6 6 5 5 6 6 6 6 6 7 7 8 9 9 9 9 9 8 8 7 7 6 7 9 10 10 11 12 12 12 17 26 27 24 24 24 23 22 21 19 19 23 28 29 28 27
20 20 20 19 20 19 19 19 18 18 17 16 15 14 14 13 13 13 12 11 10 10 9 8 7 6 6 6 6 6 5 5 6 6 6 6 6 6 7 7 7 6 5 6 6 6 7 7 7 8 9 10 10 10 10 10 11 11 10 9 7 7 7 9 10 11 12 13 12 13 18 26 27 26 25 25 23 22 21 18 20 25 27 28 28
21 21 20 20 20 20 19 19 19 18 18 17 16 15 15 14 14 13 13 12 11 11 10 9 8 8 7 6 7 7 7 7 7 7 7 7 7 7 7 7 8 9 8 7 6 7 8 8 8 9 9 9 10 11 11 11 12 12 12 11 9 7 7 8 9 11 12 12 13 11 11 18 27 30 27 26 25 24 23 20 19 21 24 28 29
20 20 20 20 20 19 19 19 18 18 18 18 17 17 16 16 15 15 14 13 12 12 11 10 10 9 9 8 8 8 8 9 8 8 8 7 7 8 8 8 9 10 10 10 9 8 9 10 10 10 10 10 10 11 11 12 12 12 12 12 11 9 8 8 8 9 11 11 11 12 11 12 21 31 30 25 25 26 25 22 20 20 22 26 29
19 19 19 19 19 19 18 18 18 17 17 17 17 17 16 16 16 15 15 14 13 13 12 12 11 11 11 10 9 9 9 9 9 10 9 8 8 8 8 9 9 10 11 11 11 11 11 11 12 12 13 12 12 12 12 13 13 13 12 12 12 12 10 9 9 9 9 9 10 11 11 9 13 25 31 26 25 26 25 25 23 22 23 26 28
19 19 19 19 19 19 18 18 17 17 17 16 16 16 15 15 15 14 14 14 14 13 13 13 12 12 12 12 11 11 10 10 10 10 10 10 9 9 8 9 9 11 12 12 12 12 12 13 13 14 14 13 13 13 13 14 14 14 14 13 13 13 12 12 10 9 9 9 9 9 11 11 10 15 23 27 27 27 25 26 27 25 24 25 27
19 19 19 19 18 18 18 18 17 17 16 16 16 15 15 14 14 14 14 13 13 13 13 13 12 12 12 12 12 12 12 12 11 11 11 11 11 10 10 9 8 9 11 11 11 12 13 13 13 14 14 12 11 11 12 12 13 13 14 14 14 14 14 13 12 11 11 10 9 8 9 12 13 12 15 21 25 27 28 28 28 27 26 25 25
18 17 17 17 17 17 17 17 17 16 16 16 16 15 15 15 14 14 14 14 13 13 13 13 12 12 12 12 12 13 13 13 13 13 13 12 12 12 11 11 10 10 10 10 10 11 12 13 13 13 12 11 10 10 9 9 10 11 12 14 15 15 15 15 14 14 13 12 10 9 8 9 12 13 14 17 19 21 25 29 31 29 27 27 26
16 16 16 16 16 16 16 16 16 16 16 16 15 15 15 15 15 15 15 15 15 15 14 14 14 13 13 13 12 13 13 14 14 15 14 14 13 13 13 13 12 11 11 10 9 10 11 12 13 13 12 10 9 9 7 7 8 8 10 12 13 15 15 16 16 16 16 15 12 12 11 10 10 11 13 16 19 19 19 25 32 32 28 28 29
15 16 16 16 16 16 16 17 17 17 17 17 16 16 15 15 15 16 16 16 15 15 15 15 15 15 14 14 13 13 13 14 14 15 15 15 15 14 15 15 15 14 13 10 9 10 11 11 12 13 11 9 9 9 8 7 7 8 9 11 12 13 14 15 16 16 17 17 16 15 13 12 12 12 13 14 16 18 16 17 23 29 30 30 30
16 16 16 16 16 16 17 17 17 17 18 18 18 18 18 18 17 17 17 17 17 16 16 15 15 15 16 16 15 15 14 14 14 15 15 15 16 16 15 16 16 16 16 14 11 10 11 11 11 12 11 10 10 10 10 9 9 9 10 11 12 13 14 14 15 15 16 17 18 18 17 15 13 13 14 13 12 14 16 16 17 21 24 25 25
18 18 18 17 17 17 17 17 16 16 17 17 17 18 18 18 18 19 19 19 19 19 18 17 16 16 16 16 17 17 16 16 16 16 16 16 16 17 17 17 17 17 16 16 15 13 12 12 12 12 11 11 11 11 12 11 11 11 12 13 13 14 15 16 15 15 16 16 17 19 19 18 16 15 15 13 11 12 15 17 18 19 20 21 21
20 20 21 20 20 19 19 18 18 17 17 16 17 17 17 17 17 18 19 20 20 21 21 20 19 18 18 18 18 17 17 17 17 17 17 17 17 17 18 18 18 18 17 16 16 16 15 14 13 13 12 12 13 13 13 13 13 13 13 14 15 15 16 16 17 16 16 16 17 18 18 18 19 19 17 14 13 13 14 15 17 19 20 21 22
19 19 20 21 21 21 21 21 21 20 19 19 18 18 17 17 18 19 20 20 20 20 21 20 20 20 20 20 21 20 20 18 18 18 18 18 18 18 18 19 19 20 20 18 17 17 18 17 16 16 15 14 15 15 15 15 15 15 15 16 16 16 16 17 17 17 17 17 17 17 18 18 19 21 20 18 17 16 16 16 16 17 18 20 22
18 19 20 20 21 22 22 22 22 22 22 22 21 21 20 20 21 21 22 22 21 20 20 20 20 20 20 20 21 22 22 22 21 20 20 19 19 19 19 19 20 21 22 21 19 18 19 19 19 19 18 17 16 16 16 17 17 17 17 17 18 18 18 17 17 17 17 17 17 17 17 17 18 20 21 21 20 19 18 17 17 17 17 19 21
17 18 19 20 22 23 23 23 23 23 23 23 23 23 23 23 24 24 24 24 24 23 22 21 21 21 21 20 20 21 22 23 23 23 23 23 23 22 21 21 20 21 22 23 22 19 19 21 21 21 21 20 19 19 18 18 18 18 17 18 19 20 20 19 18 17 17 17 17 17 17 17 18 19 20 21 21 21 21 20 19 19 18 18 19
16 18 19 21 22 24 24 25 25 24 24 24 24 25 25 25 26 26 26 26 26 26 26 25 23 23 22 22 22 21 22 22 22 23 24 25 26 26 26 25 24 24 24 25 25 23 20 21 22 22 22 22 22 21 22 21 20 20 18 18 19 20 21 21 19 18 18 18 18 17 17 17 17 18 19 20 21 22 22 22 22 22 21 20 19
17 19 21 23 24 25 26 27 26 26 25 25 25 26 26 26 26 27 27 28 28 28 28 28 26 26 26 25 24 24 24 24 23 23 24 25 27 27 28 28 27 27 27 28 29 28 24 22 23 24 24 24 23 23 23 24 24 23 21 20 19 19 20 21 20 19 19 19 19 18 17 17 18 18 18 19 21 22 23 24 24 24 24 23 22
19 22 24 25 26 28 28 29 29 28 27 26 26 26 26 27 27 27 28 29 30 30 29 29 28 28 28 27 27 27 27 27 26 26 26 27 28 28 29 29 29 28 29 30 31 32 31 27 24 25 26 26 25 24 24 25 25 25 24 23 22 21 20 20 19 19 19 20 20 19 19 18 19 19 19 19 20 21 22 24 25 26 26 26 25
21 23 25 27 29 30 31 31 31 30 29 28 29 29 30 30 29 29 30 30 30 30 29 29 28 28 28 27 27 28 28 28 28 28 28 28 29 30 29 30 31 30 30 31 32 33 34 32 28 25 26 27 27 27 27 27 27 27 27 26 25 24 22 22 21 20 20 21 22 21 20 20 20 21 21 20 20 20 21 22 23 24 25 26 27
22 24 26 29 31 33 34 34 33 32 31 32 33 33 33 33 32 31 30 30 29 29 28 28 27 27 27 27 28 28 28 29 29 30 30 30 31 31 30 29 30 31 31 32 33 35 36 36 33 28 27 27 27 27 28 29 29 29 29 28 28 27 25 24 23 22 22 22 23 22 22 22 22 22 22 21 21 20 21 21 21 22 23 24 25
22 25 27 30 32 34 35 36 35 34 34 36 36 37 36 34 33 31 30 29 28 28 27 27 26 26 26 27 28 28 28 28 28 29 30 30 31 31 31 31 31 32 32 32 34 36 37 37 36 33 31 29 29 27 27 29 31 31 30 30 30 30 29 27 25 25 24 24 24 24 23 23 24 24 23 22 22 22 21 21 21 21 21 22 22
23 25 28 30 33 34 35 36 36 36 37 38 39 38 36 34 33 31 30 29 28 28 27 27 26 26 26 26 27 27 28 28 27 27 28 29 29 29 30 30 30 31 31 31 32 34 36 36 36 35 33 32 31 29 28 29 31 31 31 31 31 31 31 30 28 27 26 25 25 25 25 25 25 25 25 24 23 23 23 23 22 22 21 21 21
24 26 28 31 33 35 36 37 36 36 38 40 40 39 37 35 33 31 30 29 28 27 27 27 26 26 26 26 26 27 28 28 28 27 27 28 28 27 28 29 29 29 30 30 30 31 33 35 35 35 34 33 34 34 33 32 32 30 30 33 34 32 32 32 31 29 28 27 26 26 25 25 25 25 26 26 25 24 24 24 23 22 21 21 21
24 26 29 32 34 36 37 37 37 38 40 41 41 39 37 35 33 32 31 30 29 28 27 27 26 26 26 26 26 26 27 28 28 28 28 28 28 28 28 29 30 31 31 31 31 31 32 33 34 34 34 34 35 35 36 35 35 33 33 35 36 34 33 34 33 31 31 30 29 27 26 25 26 26 26 27 27 26 25 25 25 24 23 22 22
25 27 30 33 35 37 38 38 38 39 41 43 42 40 37 35 33 32 31 30 29 28 27 27 26 27 27 26 26 26 27 27 27 27 28 28 28 29 29 30 30 31 32 32 33 33 33 33 34 34 34 34 33 34 35 35 35 35 36 36 37 37 37 37 34 32 32 32 32 30 28 26 26 27 27 27 28 28 27 26 25 25 25 24 23
26 28 31 35 37 37 38 38 39 41 42 43 42 39 36 34 32 31 30 29 29 28 27 27 27 27 27 27 27 26 27 27 27 27 28 28 28 29 29 30 30 31 31 32 32 33 33 33 33 33 33 33 32 32 34 34 33 34 34 33 33 35 38 40 38 34 31 32 33 34 31 29 28 27 27 27 28 29 28 27 27 26 26 25 24
27 30 33 37 38 38 38 39 40 42 43 43 40 37 35 33 32 31 30 30 29 29 28 28 27 27 27 27 27 27 27 27 27 27 27 28 28 29 30 30 31 31 32 33 33 33 33 34 33 32 32 32 32 31 32 33 33 34 34 33 32 32 34 37 40 38 34 33 35 36 34 32 31 30 28 27 28 29 30 29 28 27 26 26 25
30 32 36 39 39 39 39 40 41 43 43 41 37 34 32 32 31 31 31 31 31 30 30 29 29 28 27 27 27 28 27 27 27 27 27 27 26 27 28 29 29 30 31 32 33 34 34 34 34 33 32 33 33 31 30 32 32 32 33 34 34 34 33 34 37 38 38 38 38 37 35 34 33 33 32 29 28 29 30 30 29 28 28 27 26
31 34 37 39 39 40 40 41 42 43 41 37 33 31 31 30 31 31 31 31 31 31 31 30 30 29 28 28 28 28 28 28 28 27 27 26 26 25 26 26 27 28 29 30 30 31 32 32 32 32 31 31 33 32 30 31 31 31 31 31 32 34 34 33 34 36 38 39 40 41 40 37 34 35 34 31 30 30 30 30 30 30 30 29 28
32 35 38 39 40 40 41 42 43 42 38 33 31 30 29 29 29 30 30 30 30 30 30 30 30 29 29 29 29 29 29 29 28 28 27 27 26 26 25 25 25 26 27 28 28 28 29 29 30 30 29 29 30 30 29 29 29 30 30 30 30 32 33 34 34 34 35 36 40 44 46 41 36 36 36 33 33 33 31 31 32 32 31 31 30
34 36 38 39 39 40 41 43 42 39 34 30 29 28 28 28 28 28 27 27 28 28 29 29 29 29 29 29 29 29 29 29 29 29 29 29 28 28 27 26 26 26 27 27 28 27 27 26 27 28 27 27 28 29 29 28 29 29 29 29 29 31 33 34 34 34 33 33 35 41 46 44 40 39 39 35 35 35 34 34 34 33 33 32 31
35 36 37 38 39 40 42 42 39 34 30 29 28 28 27 27 26 26 25 25 25 26 26 27 27 28 28 28 29 29 29 30 30 30 30 30 30 30 29 28 27 27 27 27 27 27 27 26 26 27 26 26 26 26 27 28 28 29 29 28 28 30 32 32 33 34 32 32 32 34 39 42 42 42 41 37 36 37 36 35 35 35 35 34 32
36 37 38 38 39 40 41 39 34 30 29 28 28 28 27 27 26 26 25 24 24 23 23 24 25 26 26 27 28 29 30 30 31 31 31 31 31 31 30 29 29 28 27 27 27 27 27 27 27 26 26 26 25 25 25 26 27 28 28 28 28 29 31 32 33 33 32 32 34 34 34 37 39 43 44 41 39 38 37 36 36 36 36 36 34
37 37 37 37 38 39 38 34 30 29 28 29 29 29 28 27 27 26 25 24 23 22 22 22 22 24 25 26 28 29 30 31 31 32 32 32 32 32 32 31 31 30 29 29 28 28 28 28 28 27 27 27 26 25 25 25 25 26 27 28 28 29 31 32 32 33 33 32 33 35 35 35 36 38 42 44 44 41 38 37 37 37 36 37 36
Wind_Direction
23 21 9 338 314 255 223 225 223 204 106 52 60 51 28 45 53 27 47 80 73 64 56 41 41 50 54 52 50 48 42 35 31 29 0 295 284 297 317 327 298 288 290 261 252 249 236 246 251 225 207 224 220 223 220 210 201 197 200 201 196 194 198 203 212 213 204 202 196 193 198 196 191 191 186 179 178 178 179 182 184 184 183 182 181
23 24 26 4 322 307 262 238 238 229 73 28 46 52 34 38 48 24 14 55 73 73 61 42 45 52 53 53 52 50 46 39 33 26 2 332 321 330 334 322 272 298 304 286 269 263 246 250 266 266 226 229 223 224 228 223 212 206 205 204 203 199 201 206 211 217 210 206 201 197 200 198 193 193 191 184 182 183 183 187 189 187 185 185 183
26 27 31 29 348 338 342 291 221 128 78 24 49 54 41 32 36 25 359 10 51 72 66 45 39 42 45 52 52 48 44 40 39 36 31 29 28 27 22 21 63 67 339 296 284 273 258 256 266 257 237 230 228 226 225 223 214 209 208 207 208 207 206 208 211 217 216 211 206 203 204 201 195 195 194 190 187 187 188 190 192 191 188 186 185
28 33 37 43 38 17 28 57 106 119 104 82 86 59 52 54 37 19 353 337 349 22 48 34 19 13 24 43 49 47 45 43 43 41 48 62 60 51 44 42 45 44 21 314 293 281 276 278 258 239 231 233 238 231 223 224 220 214 212 209 210 211 210 213 215 216 219 217 212 208 207 203 199 198 197 196 194 191 191 193 195 195 192 188 188
32 39 44 51 58 57 60 81 120 129 115 100 87 57 58 69 54 21 5 335 332 338 354 11 2 349 355 21 38 38 39 46 50 50 60 74 76 69 63 59 53 46 41 21 335 323 357 39 194 222 211 228 249 247 233 231 234 225 217 215 214 213 213 219 220 219 220 220 216 213 209 205 202 200 199 200 200 196 193 195 197 197 196 192 189
37 46 53 57 64 74 85 107 136 137 123 114 83 61 62 74 73 58 50 13 349 346 349 2 357 338 336 352 16 22 24 37 46 49 59 73 77 75 71 69 67 61 56 43 17 10 31 56 69 88 172 216 253 265 259 242 241 230 218 216 218 218 220 223 223 222 222 221 219 216 211 207 206 204 201 202 203 199 196 198 199 198 199 197 193
43 50 58 62 67 78 91 110 134 138 113 91 74 70 73 81 84 84 91 79 30 5 355 359 355 340 332 342 359 8 15 28 36 35 39 47 48 49 56 62 67 66 64 57 40 31 40 54 56 62 101 207 249 257 252 241 239 235 225 218 219 224 226 224 225 225 224 221 218 216 212 212 213 210 204 204 204 201 198 200 202 200 199 200 198
45 50 55 60 64 73 84 97 112 114 89 72 68 75 82 86 86 87 97 101 80 39 3 357 357 349 341 349 3 10 15 21 26 28 26 26 26 28 33 38 43 45 49 51 44 41 45 40 27 46 81 145 235 235 241 245 245 243 238 228 225 229 226 223 225 227 227 223 218 215 213 216 219 216 211 207 205 202 199 201 203 203 200 201 202
47 50 53 56 60 64 70 75 80 81 73 64 65 74 82 83 78 74 78 87 85 62 23 5 5 358 347 347 358 9 11 4 5 17 18 12 13 16 15 14 17 20 25 30 33 39 44 39 23 14 14 313 266 257 252 255 256 247 241 235 234 233 227 224 226 226 228 226 221 216 212 215 221 221 219 214 209 206 202 201 204 204 203 202 204
48 50 53 56 58 59 63 66 67 70 68 64 62 67 73 71 60 47 44 50 54 57 54 34 18 9 354 345 348 360 4 357 352 359 0 353 356 2 1 0 1 5 9 13 17 25 36 43 44 36 12 323 297 287 279 269 260 252 246 239 237 236 230 228 229 227 228 228 224 219 213 215 219 221 224 222 216 211 207 204 204 205 206 205 205
49 51 55 58 58 57 59 62 64 66 68 67 65 66 66 60 44 29 23 25 32 46 64 63 38 21 11 358 352 355 358 354 343 339 343 344 350 358 359 357 355 357 2 5 8 9 15 30 44 48 37 14 341 303 286 272 261 259 259 252 243 238 237 235 231 229 228 227 225 222 216 215 219 222 226 227 223 218 212 208 206 205 206 208 208
49 51 54 58 59 58 57 59 61 61 61 61 60 59 57 53 41 31 26 22 23 31 53 67 55 34 23 10 1 357 357 356 349 342 345 347 353 1 4 2 358 358 358 355 354 350 345 354 8 15 13 17 10 333 302 276 264 262 264 266 262 254 249 241 236 232 226 224 225 224 221 217 220 227 230 229 226 223 218 212 209 208 206 208 210
50 50 52 55 57 57 57 58 59 58 57 54 51 47 41 35 30 29 30 26 24 27 37 53 56 50 34 10 356 353 357 0 357 354 356 356 357 2 5 2 358 355 353 346 335 323 314 317 322 315 307 303 304 313 314 298 278 269 263 265 268 266 261 251 242 237 229 227 227 225 226 222 219 226 234 232 229 227 222 217 214 212 210 209 211
52 51 52 53 54 55 55 55 56 56 56 55 53 50 44 37 31 28 27 25 24 24 22 13 5 3 0 341 327 329 337 345 345 344 350 353 352 355 354 351 347 343 339 336 331 323 310 302 301 303 307 309 305 305 311 313 306 295 279 267 263 261 262 258 251 245 237 233 232 230 228 224 219 223 230 234 237 233 226 220 218 216 214 212 212
54 53 53 54 54 55 54 53 52 52 52 53 52 51 50 46 41 36 35 33 31 28 22 12 352 331 324 316 304 303 307 311 314 314 320 326 329 333 329 324 324 324 322 323 324 324 321 313 303 299 300 302 304 305 308 311 312 313 307 286 268 260 261 261 258 257 251 238 231 230 228 225 222 223 227 233 240 241 232 225 221 218 216 215 214
55 55 55 55 55 55 56 55 52 50 49 49 49 48 47 45 42 40 40 41 42 40 36 30 19 5 358 351 331 314 308 309 309 310 309 305 301 299 296 297 300 305 307 309 312 314 316 314 310 304 297 295 295 297 300 302 304 307 310 303 287 272 266 264 261 262 268 257 237 228 225 224 226 225 226 229 234 240 239 233 226 221 218 217 217
56 58 59 58 57 56 56 57 55 52 50 49 48 47 45 43 42 41 40 40 42 43 42 41 38 31 24 17 8 356 348 345 337 332 330 323 314 305 299 298 295 294 294 296 299 300 302 304 305 304 301 299 295 291 290 290 292 294 297 300 300 293 278 268 264 260 263 267 263 243 225 220 224 225 224 225 229 235 241 239 230 225 222 219 218
58 60 62 62 60 59 57 57 57 55 53 51 51 49 47 44 42 41 39 39 38 38 37 36 36 34 28 18 10 3 359 357 352 347 346 341 334 322 312 307 303 301 297 296 294 291 289 289 292 294 295 297 295 292 289 286 285 286 288 289 293 301 295 279 269 267 263 254 261 266 237 220 221 223 223 223 225 231 237 239 232 227 225 222 220
61 62 63 63 62 60 59 58 58 56 54 51 50 49 48 47 44 41 38 36 35 35 34 31 28 25 20 11 4 358 353 350 345 341 338 335 332 326 317 308 304 306 307 306 301 293 289 286 285 286 287 290 292 294 293 291 288 284 282 280 278 287 294 289 277 269 269 259 253 266 261 236 227 222 221 224 224 227 231 233 234 229 224 224 222
62 63 63 63 62 61 59 58 58 57 55 51 48 46 45 44 42 41 39 37 35 34 33 31 27 22 16 10 3 356 350 346 341 336 332 328 322 316 312 306 301 302 304 307 306 301 296 292 289 288 286 287 288 290 292 292 291 287 282 276 270 272 279 286 287 278 274 273 266 262 267 268 243 224 219 225 226 225 228 227 232 234 225 222 223
61 61 61 60 60 59 58 58 57 56 56 53 50 46 44 42 41 39 38 36 35 33 32 30 28 23 18 13 7 0 352 345 341 338 336 332 323 311 302 299 298 298 297 299 301 301 298 294 291 290 289 287 285 285 287 287 287 286 282 277 269 266 269 273 281 285 279 273 272 264 257 274 262 227 217 223 226 226 229 226 227 233 230 224 223
62 61 60 59 58 57 56 55 55 55 54 53 51 48 45 42 40 39 38 36 34 31 29 28 27 24 19 15 10 5 359 353 349 344 341 337 330 321 310 301 298 296 295 294 297 298 298 295 294 292 290 290 290 290 289 285 283 281 278 277 271 265 265 267 269 270 271 268 267 267 254 249 256 233 219 224 227 225 228 229 225 228 232 230 227
61 59 58 57 56 54 52 50 50 50 50 49 49 47 44 41 38 36 34 33 32 29 26 24 23 22 20 16 11 5 1 358 355 352 347 342 336 330 324 317 309 300 297 298 299 298 297 296 293 291 291 294 299 299 295 289 282 277 273 270 268 265 262 261 265 263 263 267 262 260 258 243 240 240 232 232 233 229 229 231 229 227 229 233 232
57 54 52 50 49 48 46 44 42 41 40 40 40 40 39 36 34 31 28 26 24 23 20 18 16 14 13 12 10 4 359 356 354 352 349 344 339 334 330 327 322 314 310 310 306 299 297 296 293 291 295 303 308 305 301 298 290 278 270 266 263 263 261 259 260 262 261 264 262 256 256 248 242 245 244 241 241 239 234 232 231 228 228 233 233
50 48 44 41 39 38 37 36 34 32 30 28 28 28 28 27 25 24 22 20 17 15 13 11 8 5 3 1 1 359 356 353 351 349 347 344 339 335 331 329 326 321 320 320 313 302 299 298 296 296 300 307 311 310 308 308 305 291 275 269 266 263 262 260 258 259 260 259 258 256 255 255 254 253 251 247 245 244 242 239 234 227 227 231 231
39 37 35 31 29 26 24 23 22 22 21 19 18 17 16 16 15 13 11 10 8 6 5 3 0 358 355 352 350 349 347 346 344 343 343 341 338 335 332 329 326 324 323 324 318 308 302 300 297 298 302 303 302 304 307 307 306 300 287 279 276 272 266 263 261 259 259 258 255 253 252 252 253 253 255 255 252 248 247 248 237 227 230 234 231
32 29 27 23 21 18 15 13 12 11 11 10 9 7 6 5 4 3 1 359 357 355 354 353 351 350 347 344 342 340 339 337 335 334 334 334 333 332 330 328 326 324 323 323 321 314 306 301 296 295 296 293 291 291 292 295 293 291 291 287 284 283 276 270 267 262 259 258 256 253 251 249 249 253 257 258 260 253 246 246 240 233 238 241 235
35 32 28 24 20 17 14 11 8 6 5 5 3 1 359 357 356 356 355 353 349 346 344 342 340 339 338 335 333 332 331 330 329 328 328 327 327 326 324 323 322 321 320 320 319 316 310 304 298 294 292 286 282 280 280 282 283 282 283 284 283 284 282 277 272 268 263 260 258 257 254 249 245 246 253 255 254 250 243 241 241 238 240 242 238
35 33 30 27 24 21 18 15 12 8 5 3 1 360 359 359 359 358 357 353 348 342 338 334 332 330 329 327 325 322 321 321 322 323 323 322 321 321 319 318 317 315 315 315 315 313 309 305 301 297 293 288 280 277 276 276 277 278 278 279 279 279 281 279 275 270 267 263 260 260 258 251 245 242 243 247 246 246 243 241 239 238 238 237 236
30 28 26 24 21 19 17 14 12 9 5 1 358 355 353 352 352 351 350 349 347 341 334 329 324 322 322 322 321 318 316 315 314 315 315 315 314 314 313 313 312 310 309 309 310 310 307 304 302 298 294 291 285 280 279 277 275 274 274 275 276 277 277 277 276 270 265 263 261 261 260 255 249 243 241 241 241 242 243 244 241 237 235 235 236
24 22 19 16 14 11 9 7 6 4 1 358 355 351 347 342 339 338 336 336 338 336 331 325 319 315 314 316 317 316 313 312 312 311 309 308 307 306 306 306 305 305 304 303 303 305 304 302 301 300 297 294 290 285 280 277 275 273 273 274 275 276 276 275 274 269 264 261 260 259 260 258 253 247 242 241 241 241 243 245 245 239 236 236 238
17 15 13 10 7 4 2 0 359 357 355 352 349 347 344 341 337 335 332 330 331 331 328 324 317 311 309 308 309 308 307 307 309 309 308 306 305 304 303 301 300 299 298 297 298 298 299 298 297 297 297 296 294 291 286 281 279 275 274 274 274 275 275 274 272 268 264 263 261 260 260 260 257 251 245 242 241 243 244 245 245 242 240 239 238
10 8 7 6 3 0 358 356 354 353 351 348 344 342 339 337 335 333 331 329 329 328 327 324 318 311 306 301 299 298 297 297 299 301 302 302 302 302 301 300 298 296 294 293 294 293 291 291 292 292 293 294 294 293 291 288 285 282 278 275 274 274 275 275 274 270 267 265 263 262 262 262 260 254 247 242 241 244 247 247 246 244 243 243 240
4 4 3 1 358 356 354 352 351 349 348 346 342 340 336 333 331 330 329 328 327 326 325 323 319 314 309 304 299 294 290 289 290 291 292 293 293 294 296 296 295 294 294 293 293 294 292 287 285 287 287 287 288 290 290 289 288 286 283 280 277 276 276 276 276 273 270 269 266 263 263 263 261 256 248 242 239 240 243 246 247 246 245 245 243
2 1 360 357 354 352 350 349 347 346 344 342 339 337 334 331 329 327 326 325 324 323 322 321 318 315 312 308 303 297 292 290 288 287 287 288 287 287 288 289 290 290 290 291 291 293 294 290 285 283 283 283 284 285 285 285 286 285 283 282 280 279 278 277 276 274 271 270 267 265 263 263 262 258 252 246 241 240 240 242 244 245 245 244 244
356 355 354 353 351 348 346 345 343 341 340 338 336 333 331 329 327 324 322 321 320 320 319 318 316 314 311 308 304 299 296 292 289 287 287 286 287 288 288 285 286 287 286 287 289 290 291 291 288 283 280 281 282 283 282 281 281 282 282 281 280 279 279 278 276 275 272 269 267 264 263 262 262 260 256 252 248 245 244 243 243 243 244 244 244
349 349 349 350 349 346 343 342 339 338 337 335 333 331 330 329 327 325 323 321 321 320 319 318 316 313 311 308 305 302 298 295 291 288 287 285 285 287 289 287 286 286 286 286 288 288 287 287 287 283 280 279 279 280 281 281 280 280 280 281 281 279 278 277 276 274 272 270 267 265 262 262 262 261 259 256 253 251 248 247 246 245 244 243 243
344 344 344 346 346 343 340 338 336 334 334 333 332 331 330 330 328 327 326 325 324 323 321 319 317 314 311 309 306 304 301 298 294 291 289 288 286 285 286 286 285 286 287 287 287 286 284 283 283 283 281 279 277 276 277 278 279 279 280 280 279 278 277 275 274 273 271 270 269 267 265 263 262 261 260 257 255 254 252 249 247 245 244 243 242
338 339 340 342 341 339 336 334 332 330 330 331 331 331 330 329 328 328 327 327 326 324 323 321 319 316 314 311 308 306 303 301 298 295 292 290 290 288 287 286 286 287 289 289 288 285 282 280 279 279 279 278 277 275 273 272 273 275 277 277 274 273 274 272 270 269 268 268 269 268 266 264 263 262 260 258 255 254 254 252 249 247 245 243 242
332 334 336 336 335 334 333 332 329 327 327 329 330 330 330 329 328 328 328 327 327 326 324 323 320 318 315 313 310 308 305 303 302 300 297 294 293 292 291 290 291 291 290 289 288 286 282 280 278 277 277 276 275 274 271 269 269 271 273 272 270 268 268 267 266 266 265 265 265 266 266 266 265 263 261 259 256 254 253 253 252 251 248 245 244
325 329 330 330 331 331 330 329 327 325 326 327 329 329 329 329 329 329 329 329 328 327 325 323 321 319 317 314 311 308 306 304 303 302 300 299 297 294 292 291 290 290 289 288 287 286 284 282 280 280 280 279 278 278 277 274 272 270 269 269 269 267 266 265 264 264 264 263 262 261 262 264 266 265 262 260 257 255 253 252 253 252 251 248 246
321 324 324 325 327 328 328 327 325 324 325 326 327 328 328 329 329 330 330 329 328 327 326 324 322 320 318 316 313 310 308 306 305 304 303 302 300 299 297 295 293 292 290 290 289 288 287 285 284 285 286 284 284 285 285 283 279 274 271 272 271 266 262 263 264 263 264 265 263 261 258 258 260 261 261 259 258 256 254 253 252 252 252 251 250
318 319 319 323 325 325 325 324 323 323 324 325 326 327 328 329 330 330 330 329 328 327 326 324 323 322 320 319 316 314 311 309 308 307 306 304 303 302 301 300 299 298 295 293 292 292 292 291 291 291 291 289 287 285 286 286 285 282 280 281 281 273 265 263 262 261 262 265 265 262 259 256 255 255 256 256 256 256 256 254 253 252 252 251 251
314 315 318 321 323 323 323 322 322 322 323 325 326 327 328 329 330 330 330 329 329 328 327 326 326 326 324 322 319 317 315 314 312 310 308 307 305 303 303 302 301 301 299 297 295 294 293 293 293 295 296 294 291 289 287 286 285 285 284 284 286 284 277 269 263 260 259 261 263 262 261 260 258 254 252 251 251 253 254 253 253 253 252 252 251
311 314 318 320 320 321 321 321 322 323 323 325 326 327 328 329 330 330 330 329 329 328 328 328 328 327 326 324 321 320 318 317 316 314 312 310 308 306 304 303 302 301 300 299 299 298 297 296 295 296 297 297 295 294 293 291 289 288 286 284 282 281 281 277 271 265 259 257 259 262 261 259 259 257 254 249 246 247 249 250 251 252 252 252 252
309 313 317 318 318 319 320 320 322 323 324 325 326 326 328 329 329 329 329 329 329 329 328 328 328 326 325 323 321 319 318 317 316 315 314 312 311 309 307 306 305 303 301 301 301 300 300 301 299 299 299 298 297 297 297 295 293 291 289 286 283 278 277 278 276 271 264 257 256 260 260 256 256 257 256 252 247 245 246 247 248 249 251 251 252
307 311 314 316 317 318 319 320 322 323 323 324 325 326 327 328 329 329 329 329 329 328 327 326 325 324 323 322 320 319 318 317 315 314 314 313 311 310 310 309 309 308 306 305 305 303 303 302 301 300 299 297 296 297 298 296 294 292 290 288 286 282 279 277 275 276 273 262 255 257 258 255 253 255 255 252 250 248 246 247 248 248 249 249 249
305 310 313 314 315 317 318 320 321 321 322 323 324 325 326 327 328 328 328 328 327 326 325 323 322 322 322 321 320 319 318 317 316 315 314 313 311 310 309 309 309 309 308 308 308 308 308 306 303 301 299 298 296 295 296 295 293 291 289 288 287 285 282 279 276 277 277 270 262 260 260 257 253 252 253 251 250 250 247 247 249 250 249 248 247
306 311 313 313 315 316 317 319 320 320 322 322 322 323 325 326 327 326 326 326 326 324 323 323 323 322 322 321 320 319 318 317 316 315 314 313 312 311 310 309 308 307 306 306 306 307 308 307 307 305 304 302 301 298 297 297 295 293 291 288 286 283 282 281 278 275 275 275 272 268 264 260 254 251 251 250 249 250 248 248 249 251 251 250 248
309 311 312 312 313 315 318 319 319 320 321 320 321 322 324 326 325 324 325 326 326 325 324 324 323 322 321 321 319 318 317 316 315 314 313 313 312 312 311 311 311 309 307 305 303 303 303 304 304 305 305 304 303 301 300 298 297 296 294 292 288 284 282 281 280 276 272 270 273 274 272 269 262 255 250 249 248 248 247 247 249 251 252 253 251
309 310 310 311 314 317 319 319 319 320 320 320 320 322 324 325 324 324 325 326 326 325 324 323 322 321 320 319 317 316 315 314 313 312 312 312 312 312 312 313 313 312 311 309 307 304 302 302 301 302 303 303 303 302 300 299 298 297 296 295 292 288 285 283 283 281 277 272 273 275 274 275 273 265 253 247 246 247 246 246 247 248 250 252 252
Height
3101 3100 3100 3100 3100 3100 3100 3101 3101 3102 3102 3103 3103 3103 3104 3104 3105 3105 3105 3105 3105 3104 3104 3104 3104 3104 3103 3103 3103 3103 3103 3102 3103 3103 3102 3102 3103 3103 3103 3103 3103 3104 3105 3105 3106 3106 3106 3105 3105 3107 3108 3108 3109 3110 3111 3113 3114 3115 3116 3117 3119 3119 3120 3121 3122 3123 3123 3124 3125 3126 3127 3128 3129 3130 3131 3131 3133 3134 3135 3136 3138 3139 3140 3142 3143
3100 3100 3100 3100 3100 3100 3100 3101 3102 3103 3103 3103 3104 3104 3104 3104 3105 3105 3105 3105 3105 3105 3105 3105 3105 3104 3104 3104 3104 3103 3103 3103 3103 3103 3103 3103 3103 3103 3103 3103 3104 3104 3105 3105 3105 3105 3105 3105 3106 3108 3109 3108 3109 3110 3111 3112 3114 3115 3116 3117 3118 3119 3120 3120 3121 3122 3123 3124 3125 3125 3126 3127 3128 3130 3131 3131 3132 3134 3135 3136 3138 3139 3140 3142 3143
3101 3100 3100 3099 3099 3100 3100 3101 3102 3103 3104 3104 3104 3105 3105 3105 3105 3105 3105 3105 3106 3106 3106 3106 3106 3105 3105 3105 3105 3104 3104 3103 3103 3103 3104 3103 3103 3104 3104 3103 3103 3104 3104 3104 3104 3104 3105 3105 3107 3108 3108 3108 3109 3110 3110 3111 3113 3114 3115 3117 3118 3118 3119 3120 3121 3122 3122 3123 3124 3125 3125 3126 3127 3129 3130 3131 3132 3133 3135 3136 3138 3139 3141 3142 3143
3101 3100 3100 3100 3100 3100 3100 3101 3102 3103 3103 3104 3104 3105 3105 3106 3106 3105 3105 3105 3106 3106 3106 3106 3106 3106 3106 3106 3106 3105 3105 3104 3104 3104 3104 3104 3104 3104 3104 3103 3103 3103 3104 3104 3104 3104 3105 3106 3107 3107 3107 3108 3108 3109 3110 3112 3113 3114 3114 3115 3116 3118 3118 3119 3120 3121 3122 3123 3123 3124 3125 3125 3127 3128 3129 3130 3131 3133 3135 3136 3138 3139 3141 3142 3142
3102 3101 3100 3100 3100 3100 3100 3101 3102 3102 3103 3104 3104 3105 3106 3106 3106 3106 3105 3105 3106 3106 3106 3106 3106 3107 3107 3107 3107 3107 3106 3106 3105 3105 3105 3104 3104 3104 3104 3104 3104 3104 3104 3104 3103 3103 3104 3106 3106 3106 3107 3108 3108 3109 3111 3112 3113 3114 3114 3115 3116 3117 3118 3119 3120 3120 3121 3122 3123 3123 3124 3125 3126 3127 3129 3130 3131 3132 3134 3136 3137 3139 3140 3141 3142
3103 3102 3101 3100 3101 3101 3101 3101 3102 3102 3103 3104 3104 3105 3106 3106 3106 3106 3106 3106 3106 3106 3106 3106 3106 3107 3107 3107 3108 3108 3108 3107 3106 3106 3105 3105 3105 3105 3105 3105 3105 3105 3104 3104 3104 3104 3104 3106 3106 3106 3107 3108 3108 3109 3111 3111 3112 3112 3112 3113 3115 3116 3117 3118 3119 3120 3120 3121 3122 3123 3123 3124 3125 3127 3128 3129 3131 3132 3133 3135 3136 3138 3139 3141 3142
3105 3103 3102 3101 3101 3101 3101 3102 3102 3102 3103 3104 3104 3105 3106 3106 3106 3106 3106 3106 3106 3106 3106 3106 3106 3106 3107 3107 3108 3108 3108 3108 3107 3107 3106 3106 3106 3106 3105 3105 3105 3105 3105 3105 3105 3105 3105 3105 3106 3106 3107 3107 3108 3109 3110 3110 3110 3110 3111 3113 3114 3115 3116 3117 3118 3119 3120 3120 3121 3122 3123 3124 3125 3126 3127 3128 3130 3131 3132 3134 3135 3136 3138 3140 3141
3106 3105 3103 3103 3102 3102 3102 3102 3103 3103 3104 3104 3105 3105 3106 3106 3106 3106 3107 3107 3107 3107 3107 3106 3106 3106 3107 3107 3108 3108 3109 3109 3108 3108 3107 3107 3107 3107 3106 3106 3106 3106 3106 3106 3105 3105 3105 3105 3106 3106 3107 3107 3108 3108 3109 3109 3110 3110 3111 3112 3113 3114 3115 3116 3117 3118 3119 3120 3120 3121 3122 3123 3124 3125 3126 3127 3129 3130 3131 3132 3134 3135 3137 3139 3140
3108 3107 3105 3104 3104 3103 3103 3104 3104 3104 3105 3105 3105 3106 3106 3106 3106 3107 3107 3107 3107 3107 3107 3107 3107 3107 3107 3107 3107 3108 3108 3109 3109 3108 3108 3108 3107 3107 3107 3106 3106 3106 3106 3106 3106 3106 3106 3106 3106 3106 3107 3107 3107 3108 3108 3109 3110 3110 3110 3112 3112 3112 3113 3115 3116 3117 3118 3119 3119 3120 3121 3122 3123 3124 3126 3127 3128 3129 3130 3131 3132 3134 3135 3137 3139
3110 3109 3107 3106 3106 3105 3105 3105 3105 3105 3106 3106 3106 3106 3107 3107 3107 3107 3107 3107 3107 3108 3108 3107 3107 3107 3107 3107 3107 3108 3108 3108 3108 3108 3108 3108 3108 3107 3107 3107 3107 3107 3106 3106 3106 3106 3106 3106 3106 3106 3107 3107 3107 3107 3108 3109 3109 3109 3110 3111 3110 3111 3112 3113 3114 3115 3116 3117 3118 3119 3119 3121 3122 3123 3124 3125 3127 3128 3129 3130 3131 3132 3134 3135 3137
3111 3110 3109 3108 3107 3107 3106 3106 3106 3106 3107 3107 3107 3107 3107 3107 3107 3107 3107 3107 3107 3107 3108 3108 3108 3108 3108 3108 3108 3108 3108 3108 3108 3108 3108 3108 3107 3107 3107 3107 3107 3107 3107 3107 3106 3106 3106 3106 3106 3106 3106 3107 3107 3107 3107 3108 3108 3108 3109 3109 3108 3109 3110 3111 3112 3113 3114 3115 3117 3117 3118 3119 3120 3122 3123 3124 3125 3126 3128 3128 3129 3130 3132 3134 3136
3113 3112 3111 3110 3109 3109 3108 3108 3107 3107 3107 3107 3107 3108 3108 3108 3108 3108 3108 3108 3108 3108 3108 3108 3108 3108 3108 3108 3108 3108 3108 3107 3107 3108 3108 3107 3107 3107 3107 3107 3107 3107 3107 3107 3107 3107 3107 3107 3107 3107 3106 3106 3107 3107 3107 3107 3107 3107 3108 3107 3107 3109 3109 3109 3110 3111 3112 3113 3115 3116 3116 3118 3119 3120 3121 3122 3123 3125 3126 3127 3128 3129 3130 3132 3134
3115 3114 3113 3112 3111 3111 3110 3110 3109 3109 3108 3108 3108 3108 3108 3108 3108 3108 3108 3108 3108 3108 3108 3108 3108 3109 3109 3108 3108 3108 3108 3108 3108 3107 3107 3107 3107 3107 3107 3107 3106 3106 3106 3107 3107 3107 3107 3107 3107 3107 3106 3106 3106 3107 3107 3107 3106 3106 3107 3106 3107 3108 3108 3108 3109 3110 3111 3112 3113 3114 3115 3116 3118 3119 3120 3121 3122 3123 3124 3126 3126 3127 3128 3130 3132
3117 3116 3115 3114 3113 3112 3112 3112 3111 3110 3110 3109 3109 3109 3109 3109 3108 3108 3108 3109 3109 3108 3108 3108 3109 3109 3109 3109 3109 3109 3109 3108 3108 3108 3107 3107 3107 3107 3107 3107 3106 3106 3106 3106 3106 3107 3107 3107 3107 3106 3106 3106 3106 3106 3106 3106 3106 3106 3106 3106 3106 3107 3107 3107 3107 3108 3109 3110 3111 3113 3114 3114 3116 3117 3118 3119 3120 3121 3122 3124 3125 3126 3127 3128 3130
3119 3118 3117 3116 3115 3115 3114 3113 3113 3112 3112 3111 3111 3110 3110 3110 3109 3109 3109 3109 3109 3109 3109 3109 3109 3109 3109 3109 3109 3109 3109 3108 3108 3108 3108 3108 3107 3107 3107 3106 3106 3106 3106 3106 3106 3106 3106 3106 3106 3106 3106 3106 3105 3105 3105 3105 3105 3105 3105 3105 3105 3105 3106 3106 3106 3106 3107 3108 3109 3110 3111 3112 3114 3115 3116 3118 3119 3119 3120 3122 3123 3124 3125 3127 3128
3121 3120 3119 3118 3117 3117 3116 3115 3115 3114 3113 3113 3112 3112 3112 3111 3111 3110 3110 3110 3110 3110 3110 3110 3110 3110 3110 3110 3109 3109 3109 3109 3108 3108 3108 3108 3107 3107 3106 3106 3106 3106 3106 3105 3105 3105 3105 3105 3105 3105 3105 3105 3105 3105 3105 3104 3104 3104 3104 3104 3104 3104 3104 3105 3105 3105 3105 3106 3106 3107 3109 3110 3112 3113 3115 3116 3117 3118 3119 3120 3121 3122 3124 3125 3127
3122 3122 3121 3120 3119 3119 3118 3117 3116 3116 3115 3115 3114 3114 3113 3113 3112 3112 3112 3111 3111 3111 3111 3111 3111 3110 3110 3110 3109 3109 3109 3108 3108 3108 3107 3107 3107 3106 3106 3105 3105 3105 3105 3105 3105 3105 3105 3104 3104 3104 3104 3104 3104 3104 3104 3104 3103 3103 3103 3103 3103 3103 3103 3103 3103 3103 3103 3104 3104 3105 3106 3107 3109 3111 3112 3114 3115 3116 3117 3118 3119 3120 3122 3123 3125
3124 3123 3122 3122 3121 3120 3120 3119 3118 3117 3117 3116 3116 3115 3115 3114 3114 3113 3113 3112 3112 3111 3111 3111 3111 3110 3110 3110 3109 3109 3108 3108 3108 3107 3107 3107 3106 3106 3105 3105 3104 3104 3104 3104 3104 3104 3104 3103 3103 3103 3103 3103 3103 3103 3102 3102 3102 3102 3102 3102 3102 3102 3102 3102 3101 3101 3101 3102 3103 3103 3103 3105 3106 3108 3109 3111 3112 3114 3115 3116 3117 3118 3119 3121 3123
3126 3125 3124 3124 3123 3122 3121 3121 3120 3119 3118 3118 3117 3117 3116 3115 3115 3114 3114 3113 3112 3112 3111 3111 3111 3110 3110 3110 3109 3109 3108 3108 3108 3107 3107 3106 3106 3105 3104 3104 3104 3103 3104 3104 3103 3103 3103 3102 3102 3102 3102 3102 3102 3101 3101 3101 3101 3101 3100 3100 3101 3101 3101 3100 3100 3100 3100 3100 3101 3102 3103 3104 3104 3105 3107 3108 3110 3112 3113 3114 3115 3116 3117 3118 3120
3128 3127 3126 3126 3125 3124 3123 3123 3122 3121 3120 3119 3119 3118 3117 3116 3116 3115 3115 3114 3113 3113 3112 3111 3111 3111 3110 3110 3109 3109 3108 3108 3107 3107 3107 3106 3106 3105 3104 3104 3103 3103 3103 3103 3103 3102 3102 3101 3101 3101 3101 3101 3100 3100 3100 3100 3099 3099 3099 3099 3099 3099 3099 3099 3099 3099 3099 3099 3100 3100 3101 3101 3102 3102 3104 3105 3107 3109 3110 3112 3113 3114 3115 3116 3117
3130 3129 3128 3128 3127 3126 3125 3125 3124 3123 3122 3121 3121 3120 3119 3118 3117 3117 3116 3115 3114 3114 3113 3112 3111 3111 3110 3110 3109 3109 3108 3107 3107 3106 3106 3106 3105 3105 3104 3104 3103 3102 3102 3102 3102 3102 3101 3101 3100 3100 3099 3099 3099 3099 3099 3098 3098 3098 3098 3098 3097 3098 3098 3098 3098 3098 3098 3098 3098 3098 3098 3099 3099 3099 3101 3103 3105 3106 3108 3109 3111 3112 3113 3114 3115
3131 3131 3130 3129 3129 3128 3127 3127 3126 3125 3124 3123 3123 3122 3121 3120 3119 3119 3118 3117 3116 3115 3114 3113 3112 3111 3111 3110 3109 3109 3108 3107 3106 3106 3105 3105 3104 3104 3103 3103 3103 3102 3101 3101 3101 3100 3100 3099 3099 3098 3098 3098 3098 3098 3097 3097 3097 3097 3096 3096 3096 3096 3096 3097 3097 3097 3097 3096 3096 3096 3096 3097 3098 3098 3100 3102 3102 3104 3105 3107 3108 3109 3110 3111 3113
3133 3133 3132 3131 3130 3130 3129 3128 3127 3127 3126 3125 3124 3123 3123 3122 3121 3120 3119 3118 3117 3116 3115 3114 3113 3112 3111 3111 3110 3109 3108 3107 3106 3106 3105 3104 3103 3103 3102 3102 3102 3101 3101 3100 3100 3099 3099 3098 3097 3097 3096 3097 3097 3096 3095 3095 3094 3094 3095 3095 3094 3095 3095 3095 3095 3095 3095 3095 3095 3095 3095 3095 3097 3098 3099 3100 3100 3101 3102 3103 3105 3106 3107 3109 3110
3135 3134 3133 3133 3132 3131 3130 3130 3129 3128 3127 3126 3126 3125 3124 3123 3122 3121 3121 3120 3119 3118 3117 3115 3114 3113 3112 3111 3110 3109 3108 3108 3107 3106 3105 3104 3103 3102 3101 3101 3100 3100 3100 3099 3099 3098 3098 3097 3096 3095 3095 3095 3095 3094 3093 3093 3092 3092 3092 3092 3092 3092 3093 3093 3093 3094 3094 3093 3093 3094 3094 3095 3095 3096 3097 3098 3098 3099 3099 3100 3101 3103 3104 3106 3108
3136 3135 3135 3134 3133 3132 3132 3131 3130 3129 3128 3128 3127 3126 3125 3124 3123 3122 3122 3121 3120 3119 3117 3116 3115 3114 3113 3112 3111 3110 3109 3108 3107 3106 3105 3104 3103 3102 3101 3100 3099 3099 3099 3098 3098 3097 3096 3096 3095 3095 3094 3094 3093 3092 3092 3091 3091 3090 3090 3090 3090 3090 3090 3091 3091 3091 3092 3092 3092 3092 3093 3093 3094 3094 3094 3095 3095 3096 3096 3096 3097 3099 3101 3103 3105
3137 3136 3136 3135 3134 3133 3132 3132 3131 3130 3129 3128 3128 3127 3126 3125 3124 3123 3122 3121 3120 3119 3118 3117 3116 3115 3114 3112 3111 3110 3109 3108 3107 3106 3105 3104 3103 3102 3101 3100 3099 3098 3098 3097 3097 3096 3095 3095 3094 3094 3093 3093 3092 3091 3091 3090 3090 3089 3089 3089 3089 3088 3088 3088 3088 3089 3089 3089 3090 3090 3091 3091 3092 3092 3092 3092 3092 3093 3093 3093 3094 3096 3098 3100 3101
3138 3137 3137 3136 3135 3134 3133 3132 3131 3130 3130 3129 3128 3127 3126 3125 3124 3123 3122 3121 3120 3119 3118 3117 3116 3115 3113 3112 3111 3110 3109 3108 3106 3105 3104 3103 3102 3101 3100 3099 3098 3097 3097 3096 3096 3095 3094 3093 3093 3092 3092 3092 3091 3090 3090 3089 3089 3089 3088 3088 3087 3087 3086 3086 3086 3086 3087 3087 3087 3088 3088 3089 3089 3089 3089 3090 3090 3090 3091 3091 3092 3094 3096 3096 3098
3139 3138 3137 3136 3136 3135 3134 3133 3132 3131 3130 3129 3128 3127 3126 3125 3124 3123 3122 3121 3119 3118 3117 3116 3115 3114 3113 3112 3111 3109 3108 3107 3106 3105 3104 3103 3102 3101 3099 3098 3097 3096 3096 3095 3094 3094 3093 3092 3092 3091 3091 3090 3090 3089 3089 3088 3088 3088 3087 3086 3086 3085 3085 3084 3084 3084 3084 3084 3085 3085 3086 3087 3087 3087 3087 3088 3089 3089 3089 3089 3090 3092 3093 3094 3095
3140 3139 3138 3137 3136 3135 3134 3133 3132 3132 3131 3130 3129 3128 3127 3126 3124 3123 3122 3121 3119 3118 3116 3115 3114 3113 3112 3111 3110 3108 3107 3106 3105 3104 3102 3101 3100 3099 3098 3097 3096 3095 3095 3094 3093 3092 3091 3091 3090 3090 3089 3089 3088 3088 3087 3087 3087 3086 3086 3085 3084 3084 3083 3082 3082 3082 3082 3082 3082 3083 3083 3084 3084 3085 3085 3086 3087 3087 3087 3087 3088 3089 3090 3092 3093
3140 3139 3138 3138 3137 3136 3135 3133 3132 3131 3130 3129 3128 3128 3127 3126 3124 3123 3122 3121 3120 3118 3116 3115 3113 3112 3111 3109 3108 3107 3106 3105 3104 3103 3102 3100 3099 3098 3097 3096 3095 3094 3093 3092 3092 3091 3090 3089 3089 3088 3088 3087 3087 3086 3086 3085 3085 3084 3084 3083 3082 3082 3081 3081 3080 3080 3080 3080 3080 3080 3080 3081 3082 3082 3083 3084 3085 3085 3085 3086 3086 3087 3088 3089 3090
3140 3140 3139 3138 3137 3136 3135 3134 3132 3131 3130 3128 3127 3126 3126 3125 3123 3122 3121 3120 3119 3117 3116 3114 3112 3111 3110 3109 3107 3106 3104 3103 3102 3101 3100 3099 3098 3097 3095 3094 3093 3092 3091 3090 3090 3090 3089 3088 3087 3086 3086 3085 3085 3084 3084 3083 3082 3082 3082 3081 3080 3079 3079 3079 3078 3078 3078 3078 3078 3078 3078 3078 3079 3079 3080 3081 3082 3083 3083 3084 3084 3085 3086 3086 3087
3141 3140 3139 3138 3137 3136 3135 3133 3132 3131 3129 3128 3126 3125 3124 3123 3121 3120 3119 3117 3116 3115 3114 3112 3111 3109 3108 3107 3106 3105 3103 3102 3101 3099 3098 3097 3096 3095 3094 3093 3092 3090 3089 3088 3088 3088 3088 3086 3085 3084 3083 3083 3083 3082 3082 3081 3080 3080 3080 3079 3078 3077 3077 3077 3076 3076 3075 3075 3075 3075 3075 3076 3076 3076 3077 3078 3079 3080 3080 3081 3082 3083 3083 3084 3084
3141 3140 3139 3138 3137 3136 3134 3133 3131 3130 3128 3127 3125 3123 3122 3121 3119 3118 3116 3115 3114 3112 3111 3110 3108 3106 3105 3104 3103 3102 3101 3100 3099 3098 3097 3095 3094 3093 3092 3091 3090 3089 3087 3085 3085 3086 3086 3084 3083 3082 3081 3080 3080 3079 3079 3078 3078 3078 3077 3077 3076 3075 3075 3074 3074 3074 3073 3073 3073 3073 3073 3073 3074 3074 3074 3075 3076 3077 3077 3078 3079 3080 3080 3081 3082
3141 3139 3138 3137 3136 3134 3133 3132 3130 3128 3127 3126 3124 3122 3120 3119 3117 3116 3114 3112 3111 3110 3108 3107 3105 3103 3102 3100 3100 3099 3098 3097 3096 3096 3095 3094 3092 3090 3089 3088 3087 3086 3085 3083 3082 3082 3083 3083 3081 3080 3079 3078 3077 3077 3076 3075 3075 3075 3075 3074 3074 3073 3073 3072 3072 3072 3071 3071 3071 3070 3070 3071 3071 3071 3071 3072 3073 3074 3074 3075 3075 3076 3077 3078 3079
3139 3138 3137 3136 3134 3133 3131 3130 3128 3127 3125 3124 3122 3121 3119 3117 3115 3114 3112 3110 3108 3107 3105 3104 3102 3100 3099 3098 3097 3096 3094 3094 3093 3093 3092 3091 3089 3088 3087 3085 3084 3084 3082 3080 3079 3078 3078 3080 3080 3079 3077 3075 3075 3075 3074 3073 3072 3072 3072 3071 3071 3071 3070 3070 3069 3069 3069 3068 3068 3068 3068 3068 3068 3068 3068 3069 3069 3070 3071 3071 3072 3073 3074 3075 3076
3138 3137 3136 3134 3133 3132 3130 3128 3126 3125 3123 3121 3120 3118 3116 3115 3113 3111 3109 3107 3105 3104 3102 3101 3099 3097 3096 3094 3093 3092 3091 3090 3090 3089 3088 3087 3085 3084 3084 3083 3081 3081 3080 3078 3076 3075 3074 3075 3077 3077 3075 3073 3073 3072 3071 3070 3069 3068 3068 3068 3068 3068 3068 3067 3067 3066 3066 3065 3065 3065 3065 3065 3065 3066 3066 3066 3066 3067 3067 3068 3069 3069 3070 3071 3072
3137 3135 3134 3132 3131 3129 3128 3126 3124 3122 3121 3119 3117 3115 3113 3111 3110 3108 3106 3104 3102 3101 3099 3097 3096 3094 3093 3091 3090 3089 3087 3087 3086 3085 3084 3083 3082 3081 3080 3080 3078 3077 3077 3076 3074 3072 3071 3070 3072 3073 3073 3071 3070 3070 3068 3067 3066 3066 3065 3065 3064 3064 3064 3064 3064 3063 3063 3062 3062 3062 3062 3062 3062 3063 3063 3064 3064 3064 3064 3065 3065 3066 3067 3067 3068
3135 3134 3132 3131 3129 3128 3126 3124 3122 3120 3118 3116 3114 3112 3110 3108 3106 3105 3103 3101 3099 3098 3096 3094 3093 3091 3090 3088 3087 3086 3084 3083 3082 3081 3080 3079 3078 3078 3077 3076 3075 3074 3073 3072 3071 3069 3068 3067 3067 3068 3069 3068 3067 3067 3066 3064 3063 3062 3062 3062 3062 3061 3060 3060 3060 3060 3059 3059 3059 3059 3059 3059 3059 3059 3060 3061 3061 3061 3061 3061 3062 3063 3064 3064 3065
3134 3132 3130 3129 3127 3126 3124 3122 3120 3118 3116 3114 3112 3109 3107 3105 3104 3102 3100 3098 3096 3095 3093 3091 3090 3088 3087 3085 3084 3083 3081 3079 3078 3078 3077 3076 3075 3074 3073 3072 3071 3070 3069 3068 3067 3065 3064 3063 3063 3063 3063 3063 3062 3063 3063 3061 3059 3059 3059 3058 3057 3057 3057 3056 3056 3056 3056 3056 3056 3056 3056 3056 3056 3056 3056 3057 3058 3058 3058 3058 3059 3060 3061 3061 3062
3132 3130 3128 3127 3125 3124 3122 3120 3118 3116 3114 3111 3109 3106 3104 3102 3100 3099 3097 3095 3094 3092 3090 3088 3086 3085 3083 3082 3081 3079 3078 3076 3075 3074 3073 3072 3071 3071 3070 3068 3067 3066 3065 3064 3063 3062 3060 3059 3058 3058 3057 3057 3057 3057 3057 3056 3054 3055 3054 3052 3052 3053 3053 3052 3052 3052 3052 3052 3052 3052 3052 3053 3053 3053 3053 3053 3054 3055 3055 3055 3056 3056 3057 3058 3059
3130 3128 3126 3125 3123 3121 3119 3117 3115 3113 3111 3109 3106 3103 3101 3099 3097 3095 3094 3092 3091 3089 3087 3085 3083 3082 3080 3079 3078 3076 3075 3073 3072 3071 3070 3069 3068 3067 3066 3065 3064 3062 3061 3060 3059 3058 3056 3055 3054 3054 3053 3053 3052 3051 3051 3050 3050 3050 3050 3048 3047 3048 3049 3048 3048 3049 3048 3048 3048 3048 3049 3049 3049 3049 3049 3050 3051 3051 3052 3052 3053 3053 3054 3055 3056
3127 3126 3124 3123 3121 3119 3117 3115 3112 3110 3108 3105 3102 3100 3098 3096 3094 3092 3091 3089 3087 3086 3084 3082 3080 3079 3077 3076 3075 3073 3072 3070 3069 3068 3067 3066 3064 3063 3062 3061 3060 3058 3057 3056 3054 3053 3052 3052 3051 3050 3049 3049 3048 3046 3045 3045 3045 3044 3044 3044 3042 3042 3043 3043 3044 3046 3046 3045 3044 3045 3045 3045 3045 3045 3046 3047 3047 3048 3048 3049 3049 3050 3051 3052 3053
3125 3124 3122 3121 3119 3117 3115 3112 3110 3107 3105 3102 3099 3097 3094 3092 3091 3089 3088 3086 3084 3083 3081 3079 3078 3076 3075 3073 3071 3070 3068 3067 3066 3065 3064 3062 3061 3060 3058 3057 3056 3054 3052 3051 3050 3049 3048 3047 3047 3046 3045 3044 3044 3043 3041 3040 3040 3039 3039 3039 3037 3037 3037 3037 3039 3042 3043 3042 3040 3040 3041 3041 3041 3041 3042 3044 3044 3044 3045 3046 3046 3046 3047 3048 3049
3123 3121 3120 3118 3116 3114 3112 3110 3107 3104 3102 3099 3096 3094 3091 3089 3088 3086 3085 3083 3081 3079 3078 3076 3075 3073 3072 3070 3068 3066 3065 3064 3063 3062 3061 3059 3058 3057 3055 3054 3052 3051 3048 3046 3045 3045 3044 3043 3042 3042 3041 3039 3039 3039 3038 3036 3036 3036 3035 3034 3033 3032 3032 3032 3032 3036 3039 3038 3036 3035 3037 3038 3038 3037 3038 3040 3041 3041 3041 3042 3042 3043 3044 3045 3045
3120 3119 3117 3115 3113 3111 3109 3107 3104 3101 3099 3096 3093 3091 3089 3087 3085 3083 3082 3080 3078 3076 3074 3073 3072 3070 3069 3067 3065 3063 3062 3061 3060 3058 3057 3056 3055 3054 3052 3051 3049 3047 3045 3043 3042 3040 3039 3038 3038 3038 3037 3035 3033 3034 3034 3032 3032 3032 3031 3030 3029 3029 3028 3028 3027 3029 3032 3033 3031 3031 3033 3035 3035 3034 3035 3036 3037 3037 3037 3038 3039 3039 3040 3041 3042
3118 3117 3115 3113 3110 3108 3106 3103 3101 3098 3096 3093 3091 3089 3087 3085 3083 3081 3079 3077 3075 3073 3071 3070 3068 3067 3065 3064 3062 3061 3059 3058 3057 3056 3054 3053 3052 3051 3050 3048 3046 3044 3042 3041 3039 3038 3036 3035 3033 3033 3032 3031 3029 3029 3029 3028 3027 3026 3026 3025 3025 3024 3024 3024 3024 3024 3026 3027 3027 3026 3026 3029 3031 3030 3031 3033 3033 3033 3034 3034 3034 3036 3037 3038 3038
3115 3114 3112 3110 3107 3105 3102 3100 3097 3095 3093 3091 3088 3087 3085 3083 3081 3079 3077 3075 3073 3071 3069 3067 3065 3064 3062 3061 3059 3058 3057 3055 3054 3053 3051 3050 3049 3048 3047 3045 3044 3042 3040 3038 3037 3035 3034 3032 3030 3029 3028 3027 3026 3024 3024 3023 3022 3021 3021 3021 3020 3019 3019 3019 3019 3020 3020 3022 3023 3021 3019 3023 3027 3026 3027 3030 3029 3029 3030 3030 3030 3032 3033 3034 3035
3112 3111 3109 3106 3104 3102 3099 3097 3094 3092 3090 3088 3086 3085 3083 3082 3080 3078 3076 3074 3072 3070 3067 3065 3063 3062 3060 3058 3057 3055 3054 3052 3051 3049 3048 3047 3045 3044 3043 3042 3041 3039 3037 3035 3034 3032 3031 3029 3027 3026 3024 3024 3022 3021 3020 3019 3018 3017 3017 3016 3016 3015 3013 3013 3014 3015 3016 3016 3017 3016 3013 3016 3021 3021 3021 3024 3025 3024 3025 3026 3026 3027 3028 3030 3031
3109 3107 3105 3103 3101 3098 3096 3094 3091 3089 3087 3085 3084 3082 3081 3080 3078 3076 3074 3073 3071 3068 3066 3064 3062 3060 3058 3056 3054 3053 3051 3049 3048 3046 3044 3043 3042 3041 3040 3039 3038 3036 3035 3033 3032 3030 3028 3026 3024 3023 3021 3020 3019 3018 3016 3015 3014 3013 3012 3012 3011 3010 3009 3008 3008 3009 3011 3012 3012 3011 3008 3009 3013 3015 3015 3018 3019 3019 3021 3022 3023 3023 3024 3025 3026
3106 3104 3102 3100 3098 3095 3093 3090 3088 3086 3084 3082 3081 3080 3079 3078 3076 3074 3072 3071 3069 3067 3065 3063 3060 3058 3056 3054 3052 3050 3048 3046 3045 3043 3041 3040 3038 3037 3036 3035 3034 3033 3031 3030 3029 3027 3025 3024 3022 3020 3019 3017 3016 3015 3013 3012 3010 3009 3008 3007 3007 3006 3005 3004 3003 3003 3005 3007 3007 3006 3004 3004 3006 3008 3009 3011 3012 3013 3015 3018 3019 3019 3019 3020 3021
3102 3101 3099 3097 3094 3092 3089 3087 3085 3083 3081 3079 3078 3077 3076 3075 3073 3071 3070 3069 3067 3066 3064 3062 3060 3058 3055 3053 3051 3048 3046 3044 3042 3040 3038 3037 3035 3033 3032 3031 3030 3028 3027 3026 3025 3024 3022 3021 3019 3018 3016 3014 3013 3012 3010 3009 3007 3006 3005 3004 3003 3002 3001 3000 2999 2998 2999 3001 3002 3001 3000 2999 3000 3001 3002 3003 3004 3006 3009 3012 3014 3015 3015 3015 3016